Location: Carabito
(9.8355°N, 67.9249°W)
Time: 00:54:58
(UTC+00:00)

ARIANE 3 DEB - Pass Details

Date: 23 May 2024
Orbit: 266 x 3018 km, 6.7° (Epoch: 15 June)

Event Time Altitude Azimuth Distance (km) Brightness Sun altitude
Exits shadow 09:35:50 11° 219° (SW) 1,044 3.7 -8.6°
Maximum altitude 09:37:20 17° 174° (S) 764 3.4 -8.3°
Drops below altitude 10° 09:38:55 10° 128° (SE) 1,058 4.7 -7.9°
Sets 09:41:17 0° 105° (ESE) 1,980 6.6 -7.4°
